Time,TemperatureF,DewpointF,PressureIn,WindDirection,WindDirectionDegrees,WindSpeedMPH,WindSpeedGustMPH,Humidity,HourlyPrecipIn,Conditions,Clouds,dailyrainin,SoftwareType,DateUTC
2013-07-18 00:02:00,60.9,49.1,30.42,North,353,0.0,3.0,65,0.00,,---,0.00,VWS V14.01,2013-07-18 06:02:00,
2013-07-18 00:07:00,61.0,49.2,30.42,NNW,338,0.0,3.0,65,0.00,,---,0.00,VWS V14.01,2013-07-18 06:07:00,
2013-07-18 00:12:00,60.9,49.5,30.43,NNW,340,0.0,3.0,66,0.00,,---,0.00,VWS V14.01,2013-07-18 06:12:00,
2013-07-18 00:17:00,60.5,49.5,30.42,NNW,335,1.0,4.0,67,0.00,,---,0.00,VWS V14.01,2013-07-18 06:17:00,
2013-07-18 00:22:00,60.7,49.3,30.42,NNW,333,2.0,4.0,66,0.00,,---,0.00,VWS V14.01,2013-07-18 06:22:00,
2013-07-18 00:27:00,60.6,49.2,30.42,NNW,340,3.0,5.0,66,0.00,,---,0.00,VWS V14.01,2013-07-18 06:27:00,
2013-07-18 00:32:00,60.9,49.1,30.42,North,350,0.0,5.0,65,0.00,,---,0.00,VWS V14.01,2013-07-18 06:32:00,
2013-07-18 00:37:00,61.3,48.6,30.42,NNW,343,2.0,2.0,63,0.00,,---,0.00,VWS V14.01,2013-07-18 06:37:00,
2013-07-18 00:42:00,62.0,48.4,30.42,West,262,1.0,3.0,61,0.00,,---,0.00,VWS V14.01,2013-07-18 06:42:00,
2013-07-18 00:47:00,62.3,47.8,30.42,WNW,287,0.0,3.0,59,0.00,,---,0.00,VWS V14.01,2013-07-18 06:47:00,
2013-07-18 00:52:00,63.0,48.0,30.42,NNW,330,1.0,3.0,58,0.00,,---,0.00,VWS V14.01,2013-07-18 06:52:00,
2013-07-18 00:57:00,63.3,48.3,30.42,NNW,333,0.0,3.0,58,0.00,,---,0.00,VWS V14.01,2013-07-18 06:57:00,
2013-07-18 01:02:00,62.9,47.5,30.42,NE,34,0.0,3.0,57,0.00,,---,0.00,VWS V14.01,2013-07-18 07:02:00,
2013-07-18 01:07:00,63.1,47.6,30.42,ENE,64,0.0,4.0,57,0.00,,---,0.00,VWS V14.01,2013-07-18 07:07:00,
2013-07-18 01:12:00,63.6,47.6,30.42,NNW,340,1.0,4.0,56,0.00,,---,0.00,VWS V14.01,2013-07-18 07:12:00,
2013-07-18 01:17:00,64.0,47.5,30.42,WSW,241,0.0,5.0,55,0.00,,---,0.00,VWS V14.01,2013-07-18 07:17:00,
2013-07-18 01:22:00,64.2,47.2,30.42,West,262,2.0,5.0,54,0.00,,---,0.00,VWS V14.01,2013-07-18 07:22:00,
2013-07-18 01:27:00,64.6,47.6,30.42,ENE,77,0.0,6.0,54,0.00,,---,0.00,VWS V14.01,2013-07-18 07:27:00,
2013-07-18 01:32:00,64.5,47.5,30.42,WSW,240,1.0,6.0,54,0.00,,---,0.00,VWS V14.01,2013-07-18 07:32:00,
2013-07-18 01:37:00,64.5,47.5,30.42,WSW,257,1.0,3.0,54,0.00,,---,0.00,VWS V14.01,2013-07-18 07:37:00,
2013-07-18 01:42:00,65.0,47.5,30.42,WSW,255,5.0,12.0,53,0.00,,---,0.00,VWS V14.01,2013-07-18 07:42:00,
2013-07-18 01:47:00,65.1,47.6,30.42,WSW,238,0.0,12.0,53,0.00,,---,0.00,VWS V14.01,2013-07-18 07:47:00,
2013-07-18 01:52:00,65.2,47.7,30.42,WNW,290,2.0,12.0,53,0.00,,---,0.00,VWS V14.01,2013-07-18 07:52:00,
2013-07-18 01:57:00,65.5,46.9,30.42,NNW,330,2.0,12.0,51,0.00,,---,0.00,VWS V14.01,2013-07-18 07:57:00,
2013-07-18 02:02:00,65.7,47.1,30.42,West,259,2.0,12.0,51,0.00,,---,0.00,VWS V14.01,2013-07-18 08:02:00,
2013-07-18 02:07:00,65.9,47.3,30.42,NNE,16,4.0,5.0,51,0.00,,---,0.00,VWS V14.01,2013-07-18 08:07:00,
2013-07-18 02:12:00,65.9,46.8,30.42,WSW,250,3.0,5.0,50,0.00,,---,0.00,VWS V14.01,2013-07-18 08:12:00,
2013-07-18 02:17:00,65.9,46.8,30.42,West,277,1.0,6.0,50,0.00,,---,0.00,VWS V14.01,2013-07-18 08:17:00,
2013-07-18 02:22:00,65.8,46.7,30.42,West,267,1.0,6.0,50,0.00,,---,0.00,VWS V14.01,2013-07-18 08:22:00,
2013-07-18 02:27:00,65.7,46.6,30.42,NE,38,1.0,6.0,50,0.00,,---,0.00,VWS V14.01,2013-07-18 08:27:00,
2013-07-18 02:32:00,65.7,46.6,30.42,NW,326,1.0,6.0,50,0.00,,---,0.00,VWS V14.01,2013-07-18 08:32:00,
2013-07-18 02:37:00,65.2,46.6,30.42,NW,326,1.0,3.0,51,0.00,,---,0.00,VWS V14.01,2013-07-18 08:37:00,
2013-07-18 02:42:00,64.9,46.9,30.41,NNW,340,0.0,4.0,52,0.00,,---,0.00,VWS V14.01,2013-07-18 08:42:00,
2013-07-18 02:47:00,64.7,46.7,30.42,SSW,210,1.0,4.0,52,0.00,,---,0.00,VWS V14.01,2013-07-18 08:47:00,
2013-07-18 02:52:00,64.7,46.7,30.42,WSW,248,1.0,6.0,52,0.00,,---,0.00,VWS V14.01,2013-07-18 08:52:00,
2013-07-18 02:57:00,64.7,46.7,30.42,WSW,256,2.0,6.0,52,0.00,,---,0.00,VWS V14.01,2013-07-18 08:57:00,
2013-07-18 03:02:00,64.8,46.8,30.42,North,8,1.0,11.0,52,0.00,,---,0.00,VWS V14.01,2013-07-18 09:02:00,
2013-07-18 03:07:00,64.8,46.8,30.42,East,101,3.0,3.0,52,0.00,,---,0.00,VWS V14.01,2013-07-18 09:07:00,
2013-07-18 03:12:00,64.8,46.3,30.42,SW,236,2.0,6.0,51,0.00,,---,0.00,VWS V14.01,2013-07-18 09:12:00,
2013-07-18 03:17:00,64.9,46.4,30.42,NW,318,2.0,6.0,51,0.00,,---,0.00,VWS V14.01,2013-07-18 09:17:00,
2013-07-18 03:22:00,65.1,46.0,30.41,NW,307,1.0,6.0,50,0.00,,---,0.00,VWS V14.01,2013-07-18 09:22:00,
2013-07-18 03:27:00,65.4,46.3,30.41,NW,315,1.0,6.0,50,0.00,,---,0.00,VWS V14.01,2013-07-18 09:27:00,
2013-07-18 03:32:00,65.3,46.2,30.41,North,5,2.0,6.0,50,0.00,,---,0.00,VWS V14.01,2013-07-18 09:32:00,
2013-07-18 03:37:00,65.1,46.0,30.41,North,351,1.0,2.0,50,0.00,,---,0.00,VWS V14.01,2013-07-18 09:37:00,
2013-07-18 03:42:00,64.9,45.8,30.41,WSW,253,1.0,2.0,50,0.00,,---,0.00,VWS V14.01,2013-07-18 09:42:00,
2013-07-18 03:47:00,64.7,45.7,30.41,WNW,300,1.0,2.0,50,0.00,,---,0.00,VWS V14.01,2013-07-18 09:47:00,
2013-07-18 03:52:00,64.3,45.8,30.41,NNW,328,2.0,4.0,51,0.00,,---,0.00,VWS V14.01,2013-07-18 09:52:00,
2013-07-18 03:57:00,63.8,45.9,30.40,NNW,341,2.0,4.0,52,0.00,,---,0.00,VWS V14.01,2013-07-18 09:57:00,
2013-07-18 04:02:00,63.4,46.0,30.41,NW,319,1.0,4.0,53,0.00,,---,0.00,VWS V14.01,2013-07-18 10:02:00,
2013-07-18 04:07:00,63.2,45.8,30.41,West,281,1.0,2.0,53,0.00,,---,0.00,VWS V14.01,2013-07-18 10:07:00,
2013-07-18 04:12:00,63.8,45.9,30.40,NNW,333,2.0,4.0,52,0.00,,---,0.00,VWS V14.01,2013-07-18 10:12:00,
2013-07-18 04:17:00,64.1,45.6,30.41,NW,324,1.0,4.0,51,0.00,,---,0.00,VWS V14.01,2013-07-18 10:17:00,
2013-07-18 04:22:00,64.3,45.3,30.41,NW,307,1.0,4.0,50,0.00,,---,0.00,VWS V14.01,2013-07-18 10:22:00,
2013-07-18 04:27:00,63.8,45.3,30.41,NNW,334,3.0,4.0,51,0.00,,---,0.00,VWS V14.01,2013-07-18 10:27:00,
2013-07-18 04:32:00,63.3,45.4,30.41,NNW,337,3.0,5.0,52,0.00,,---,0.00,VWS V14.01,2013-07-18 10:32:00,
2013-07-18 04:37:00,63.3,45.9,30.41,NNW,347,3.0,4.0,53,0.00,,---,0.00,VWS V14.01,2013-07-18 10:37:00,
2013-07-18 04:42:00,63.4,45.5,30.41,NNE,18,0.0,5.0,52,0.00,,---,0.00,VWS V14.01,2013-07-18 10:42:00,
2013-07-18 04:47:00,63.8,45.9,30.41,NNW,330,2.0,5.0,52,0.00,,---,0.00,VWS V14.01,2013-07-18 10:47:00,
2013-07-18 04:52:00,63.7,45.2,30.41,NW,312,2.0,5.0,51,0.00,,---,0.00,VWS V14.01,2013-07-18 10:52:00,
2013-07-18 04:57:00,63.4,45.5,30.41,NNW,343,3.0,5.0,52,0.00,,---,0.00,VWS V14.01,2013-07-18 10:57:00,
2013-07-18 05:02:00,62.8,45.4,30.41,NNW,337,4.0,5.0,53,0.00,,---,0.00,VWS V14.01,2013-07-18 11:02:00,
2013-07-18 05:07:00,62.4,45.1,30.41,NNW,337,3.0,4.0,53,0.00,,---,0.00,VWS V14.01,2013-07-18 11:07:00,
2013-07-18 05:12:00,62.4,45.5,30.41,NNW,343,3.0,4.0,54,0.00,,---,0.00,VWS V14.01,2013-07-18 11:12:00,
2013-07-18 05:17:00,62.5,45.2,30.41,NNW,338,2.0,4.0,53,0.00,,---,0.00,VWS V14.01,2013-07-18 11:17:00,
2013-07-18 05:22:00,62.4,45.1,30.41,NNW,346,4.0,5.0,53,0.00,,---,0.00,VWS V14.01,2013-07-18 11:22:00,
2013-07-18 05:27:00,62.4,45.1,30.41,NNW,330,3.0,5.0,53,0.00,,---,0.00,VWS V14.01,2013-07-18 11:27:00,
2013-07-18 05:32:00,62.3,45.0,30.42,NNW,340,3.0,5.0,53,0.00,,---,0.00,VWS V14.01,2013-07-18 11:32:00,
2013-07-18 05:37:00,62.3,45.0,30.42,NNW,340,3.0,3.0,53,0.00,,---,0.00,VWS V14.01,2013-07-18 11:37:00,
2013-07-18 05:42:00,62.3,45.0,30.42,NNW,340,3.0,3.0,53,0.00,,---,0.00,VWS V14.01,2013-07-18 11:42:00,
2013-07-18 05:47:00,62.3,45.0,30.41,NNW,340,3.0,3.0,53,0.00,,---,0.00,VWS V14.01,2013-07-18 11:47:00,
2013-07-18 05:52:00,62.3,45.0,30.42,NNW,340,3.0,3.0,53,0.00,,---,0.00,VWS V14.01,2013-07-18 11:52:00,
2013-07-18 05:57:00,62.3,45.0,30.42,NNW,340,3.0,3.0,53,0.00,,---,0.00,VWS V14.01,2013-07-18 11:57:00,
2013-07-18 06:02:00,62.3,45.0,30.42,NNW,340,3.0,3.0,53,0.00,,---,0.00,VWS V14.01,2013-07-18 12:02:00,
2013-07-18 06:07:00,62.3,45.0,30.41,NNW,340,3.0,3.0,53,0.00,,---,0.00,VWS V14.01,2013-07-18 12:07:00,
2013-07-18 06:12:00,62.3,45.0,30.41,NNW,340,3.0,3.0,53,0.00,,---,0.00,VWS V14.01,2013-07-18 12:12:00,
2013-07-18 06:17:00,62.3,45.0,30.42,NNW,340,3.0,3.0,53,0.00,,---,0.00,VWS V14.01,2013-07-18 12:17:00,
2013-07-18 06:22:00,62.3,45.0,30.42,NNW,340,3.0,3.0,53,0.00,,---,0.00,VWS V14.01,2013-07-18 12:22:00,
2013-07-18 06:27:00,62.3,45.0,30.42,NNW,340,3.0,3.0,53,0.00,,---,0.00,VWS V14.01,2013-07-18 12:27:00,
2013-07-18 06:32:00,62.3,45.0,30.42,NNW,340,3.0,3.0,53,0.00,,---,0.00,VWS V14.01,2013-07-18 12:32:00,
2013-07-18 06:37:00,62.3,45.0,30.42,NNW,340,3.0,3.0,53,0.00,,---,0.00,VWS V14.01,2013-07-18 12:37:00,
2013-07-18 06:43:00,62.3,45.0,30.42,NNW,340,3.0,3.0,53,0.00,,---,0.00,VWS V14.01,2013-07-18 12:43:00,
2013-07-18 06:48:00,62.3,45.0,30.42,NNW,340,3.0,3.0,53,0.00,,---,0.00,VWS V14.01,2013-07-18 12:48:00,
2013-07-18 06:53:00,62.3,45.0,30.42,NNW,340,3.0,3.0,53,0.00,,---,0.00,VWS V14.01,2013-07-18 12:53:00,
2013-07-18 06:58:00,62.3,45.0,30.42,NNW,340,3.0,3.0,53,0.00,,---,0.00,VWS V14.01,2013-07-18 12:58:00,
2013-07-18 07:03:00,62.3,45.0,30.42,NNW,340,3.0,3.0,53,0.00,,---,0.00,VWS V14.01,2013-07-18 13:03:00,
2013-07-18 07:08:00,62.3,45.0,30.42,NNW,340,3.0,3.0,53,0.00,,---,0.00,VWS V14.01,2013-07-18 13:08:00,
2013-07-18 07:13:00,64.5,47.5,30.42,SE,133,1.0,3.0,54,0.00,,---,0.00,VWS V14.01,2013-07-18 13:13:00,
2013-07-18 07:18:00,64.8,46.8,30.42,West,277,1.0,3.0,52,0.00,,---,0.00,VWS V14.01,2013-07-18 13:18:00,
2013-07-18 07:23:00,65.3,46.7,30.42,WSW,248,0.0,3.0,51,0.00,,---,0.00,VWS V14.01,2013-07-18 13:23:00,
2013-07-18 07:28:00,65.8,46.7,30.42,West,260,1.0,3.0,50,0.00,,---,0.00,VWS V14.01,2013-07-18 13:28:00,
2013-07-18 07:33:00,66.2,47.0,30.42,WSW,252,0.0,3.0,50,0.00,,---,0.00,VWS V14.01,2013-07-18 13:33:00,
2013-07-18 07:38:00,66.4,47.2,30.42,South,179,0.0,1.0,50,0.00,,---,0.00,VWS V14.01,2013-07-18 13:38:00,
2013-07-18 07:43:00,66.6,47.4,30.43,SSE,154,0.0,1.0,50,0.00,,---,0.00,VWS V14.01,2013-07-18 13:43:00,
2013-07-18 07:48:00,66.7,47.5,30.43,SSE,154,0.0,1.0,50,0.00,,---,0.00,VWS V14.01,2013-07-18 13:48:00,
2013-07-18 07:53:00,67.0,46.7,30.43,SSE,153,0.0,1.0,48,0.00,,---,0.00,VWS V14.01,2013-07-18 13:53:00,
2013-07-18 07:58:00,67.3,47.0,30.43,SSE,154,0.0,1.0,48,0.00,,---,0.00,VWS V14.01,2013-07-18 13:58:00,
2013-07-18 08:03:00,67.6,47.8,30.43,SSE,154,0.0,1.0,49,0.00,,---,0.00,VWS V14.01,2013-07-18 14:03:00,
2013-07-18 08:08:00,67.7,48.4,30.43,SSE,154,0.0,0.0,50,0.00,,---,0.00,VWS V14.01,2013-07-18 14:08:00,
2013-07-18 08:13:00,68.1,48.8,30.43,SSE,154,1.0,1.0,50,0.00,,---,0.00,VWS V14.01,2013-07-18 14:13:00,
2013-07-18 08:18:00,68.6,50.8,30.43,SE,129,2.0,3.0,53,0.00,,---,0.00,VWS V14.01,2013-07-18 14:18:00,
2013-07-18 08:23:00,68.6,50.3,30.43,SE,124,0.0,3.0,52,0.00,,---,0.00,VWS V14.01,2013-07-18 14:23:00,
2013-07-18 08:28:00,68.9,50.0,30.44,SE,124,0.0,3.0,51,0.00,,---,0.00,VWS V14.01,2013-07-18 14:28:00,
2013-07-18 08:33:00,69.1,50.2,30.44,ESE,122,2.0,3.0,51,0.00,,---,0.00,VWS V14.01,2013-07-18 14:33:00,
2013-07-18 08:38:00,69.5,49.5,30.44,SE,138,2.0,2.0,49,0.00,,---,0.00,VWS V14.01,2013-07-18 14:38:00,
2013-07-18 08:43:00,70.3,49.1,30.45,ESE,115,0.0,2.0,47,0.00,,---,0.00,VWS V14.01,2013-07-18 14:43:00,
2013-07-18 08:48:00,70.9,47.3,30.45,ESE,120,1.0,4.0,43,0.00,,---,0.00,VWS V14.01,2013-07-18 14:48:00,
2013-07-18 08:53:00,71.7,48.7,30.45,SE,131,1.0,4.0,44,0.00,,---,0.00,VWS V14.01,2013-07-18 14:53:00,
2013-07-18 08:58:00,72.4,49.9,30.45,SE,130,1.0,4.0,45,0.00,,---,0.00,VWS V14.01,2013-07-18 14:58:00,
2013-07-18 09:03:00,72.9,49.7,30.45,SE,127,1.0,4.0,44,0.00,,---,0.00,VWS V14.01,2013-07-18 15:03:00,
2013-07-18 09:07:00,73.3,48.8,30.45,SE,130,4.0,5.0,42,0.00,,---,0.00,VWS V14.01,2013-07-18 15:07:00,
2013-07-18 09:12:00,73.3,49.5,30.45,ESE,117,1.0,5.0,43,0.00,,---,0.00,VWS V14.01,2013-07-18 15:12:00,
2013-07-18 09:18:00,74.1,48.3,30.45,SE,129,3.0,5.0,40,0.00,,---,0.00,VWS V14.01,2013-07-18 15:18:00,
2013-07-18 09:23:00,74.5,48.6,30.44,ESE,112,1.0,5.0,40,0.00,,---,0.00,VWS V14.01,2013-07-18 15:23:00,
2013-07-18 09:28:00,74.9,49.6,30.44,SE,139,2.0,5.0,41,0.00,,---,0.00,VWS V14.01,2013-07-18 15:28:00,
2013-07-18 09:33:00,75.7,49.7,30.44,SE,131,3.0,5.0,40,0.00,,---,0.00,VWS V14.01,2013-07-18 15:33:00,
2013-07-18 09:38:00,75.6,49.6,30.44,SE,139,1.0,5.0,40,0.00,,---,0.00,VWS V14.01,2013-07-18 15:38:00,
2013-07-18 09:42:00,75.8,49.1,30.44,ESE,117,2.0,5.0,39,0.00,,---,0.00,VWS V14.01,2013-07-18 15:42:00,
2013-07-18 09:47:00,75.9,49.2,30.44,ESE,110,1.0,5.0,39,0.00,,---,0.00,VWS V14.01,2013-07-18 15:47:00,
2013-07-18 09:52:00,76.4,51.0,30.44,South,169,0.0,5.0,41,0.00,,---,0.00,VWS V14.01,2013-07-18 15:52:00,
2013-07-18 09:57:00,77.2,51.7,30.44,ESE,114,0.0,5.0,41,0.00,,---,0.00,VWS V14.01,2013-07-18 15:57:00,
2013-07-18 10:02:00,77.6,51.4,30.44,ESE,110,3.0,5.0,40,0.00,,---,0.00,VWS V14.01,2013-07-18 16:02:00,
2013-07-18 10:07:00,77.0,50.2,30.44,SE,132,4.0,6.0,39,0.00,,---,0.00,VWS V14.01,2013-07-18 16:07:00,
2013-07-18 10:12:00,76.6,51.2,30.44,ESE,123,0.0,6.0,41,0.00,,---,0.00,VWS V14.01,2013-07-18 16:12:00,
2013-07-18 10:17:00,76.9,51.4,30.44,SE,129,1.0,6.0,41,0.00,,---,0.00,VWS V14.01,2013-07-18 16:17:00,
2013-07-18 10:22:00,77.3,50.4,30.44,ESE,120,2.0,6.0,39,0.00,,---,0.00,VWS V14.01,2013-07-18 16:22:00,
2013-07-18 10:27:00,76.7,49.2,30.44,ESE,112,4.0,6.0,38,0.00,,---,0.00,VWS V14.01,2013-07-18 16:27:00,
2013-07-18 10:32:00,75.6,48.9,30.44,ESE,117,3.0,7.0,39,0.00,,---,0.00,VWS V14.01,2013-07-18 16:32:00,
2013-07-18 10:37:00,75.9,49.9,30.44,SE,125,1.0,2.0,40,0.00,,---,0.00,VWS V14.01,2013-07-18 16:37:00,
2013-07-18 10:42:00,76.6,49.8,30.44,ESE,123,2.0,5.0,39,0.00,,---,0.00,VWS V14.01,2013-07-18 16:42:00,
2013-07-18 10:47:00,76.4,50.3,30.44,SE,139,1.0,5.0,40,0.00,,---,0.00,VWS V14.01,2013-07-18 16:47:00,
2013-07-18 10:52:00,76.8,50.7,30.44,ESE,113,3.0,6.0,40,0.00,,---,0.00,VWS V14.01,2013-07-18 16:52:00,
2013-07-18 10:57:00,76.4,49.6,30.44,SE,132,5.0,7.0,39,0.00,,---,0.00,VWS V14.01,2013-07-18 16:57:00,
2013-07-18 11:02:00,76.0,50.0,30.44,ESE,117,4.0,9.0,40,0.00,,---,0.00,VWS V14.01,2013-07-18 17:02:00,
2013-07-18 11:07:00,76.1,50.7,30.44,SE,129,3.0,5.0,41,0.00,,---,0.00,VWS V14.01,2013-07-18 17:07:00,
2013-07-18 11:12:00,76.8,49.3,30.44,SE,131,2.0,5.0,38,0.00,,---,0.00,VWS V14.01,2013-07-18 17:12:00,
2013-07-18 11:17:00,77.5,52.0,30.43,ESE,117,0.0,5.0,41,0.00,,---,0.00,VWS V14.01,2013-07-18 17:17:00,
2013-07-18 11:22:00,78.1,50.5,30.44,SW,233,0.0,5.0,38,0.00,,---,0.00,VWS V14.01,2013-07-18 17:22:00,
2013-07-18 11:27:00,78.2,51.2,30.44,SSE,158,2.0,5.0,39,0.00,,---,0.00,VWS V14.01,2013-07-18 17:27:00,
2013-07-18 11:32:00,78.6,52.3,30.43,ESE,122,1.0,5.0,40,0.00,,---,0.00,VWS V14.01,2013-07-18 17:32:00,
2013-07-18 11:37:00,78.9,52.5,30.43,SE,138,4.0,4.0,40,0.00,,---,0.00,VWS V14.01,2013-07-18 17:37:00,
2013-07-18 11:42:00,78.2,52.6,30.43,SE,142,2.0,9.0,41,0.00,,---,0.00,VWS V14.01,2013-07-18 17:42:00,
2013-07-18 11:47:00,78.9,51.9,30.43,SE,127,2.0,9.0,39,0.00,,---,0.00,VWS V14.01,2013-07-18 17:47:00,
2013-07-18 11:52:00,79.3,52.2,30.43,ESE,122,2.0,9.0,39,0.00,,---,0.00,VWS V14.01,2013-07-18 17:52:00,
2013-07-18 11:57:00,80.0,52.1,30.43,ESE,116,2.0,9.0,38,0.00,,---,0.00,VWS V14.01,2013-07-18 17:57:00,
2013-07-18 12:02:00,80.4,51.8,30.43,SSW,200,1.0,9.0,37,0.00,,---,0.00,VWS V14.01,2013-07-18 18:02:00,
2013-07-18 12:07:00,80.6,52.0,30.43,NNW,335,1.0,4.0,37,0.00,,---,0.00,VWS V14.01,2013-07-18 18:07:00,
2013-07-18 12:12:00,80.7,52.0,30.42,West,280,1.0,4.0,37,0.00,,---,0.00,VWS V14.01,2013-07-18 18:12:00,
2013-07-18 12:17:00,81.1,52.4,30.42,SSE,148,0.0,4.0,37,0.00,,---,0.00,VWS V14.01,2013-07-18 18:17:00,
2013-07-18 12:22:00,81.2,52.5,30.42,SE,124,3.0,5.0,37,0.00,,---,0.00,VWS V14.01,2013-07-18 18:22:00,
2013-07-18 12:27:00,80.6,52.7,30.43,SE,124,2.0,5.0,38,0.00,,---,0.00,VWS V14.01,2013-07-18 18:27:00,
2013-07-18 12:32:00,80.0,52.1,30.43,WNW,292,1.0,5.0,38,0.00,,---,0.00,VWS V14.01,2013-07-18 18:32:00,
2013-07-18 12:37:00,79.9,53.5,30.42,ESE,123,2.0,3.0,40,0.00,,---,0.00,VWS V14.01,2013-07-18 18:37:00,
2013-07-18 12:42:00,80.6,52.7,30.42,ESE,115,2.0,4.0,38,0.00,,---,0.00,VWS V14.01,2013-07-18 18:42:00,
2013-07-18 12:47:00,80.5,51.9,30.42,SE,133,0.0,4.0,37,0.00,,---,0.00,VWS V14.01,2013-07-18 18:47:00,
2013-07-18 12:52:00,79.6,51.8,30.42,ESE,117,1.0,4.0,38,0.00,,---,0.00,VWS V14.01,2013-07-18 18:52:00,
2013-07-18 12:57:00,78.6,51.6,30.42,SW,228,1.0,4.0,39,0.00,,---,0.00,VWS V14.01,2013-07-18 18:57:00,
2013-07-18 13:02:00,77.2,51.0,30.42,South,172,0.0,4.0,40,0.00,,---,0.00,VWS V14.01,2013-07-18 19:02:00,
2013-07-18 13:07:00,76.3,51.5,30.42,South,181,0.0,2.0,42,0.00,,---,0.00,VWS V14.01,2013-07-18 19:07:00,
2013-07-18 13:12:00,75.8,50.5,30.42,SE,139,1.0,4.0,41,0.00,,---,0.00,VWS V14.01,2013-07-18 19:12:00,
2013-07-18 13:17:00,75.5,52.1,30.42,SE,134,2.0,4.0,44,0.00,,---,0.00,VWS V14.01,2013-07-18 19:17:00,
2013-07-18 13:22:00,75.6,51.5,30.42,SE,127,0.0,4.0,43,0.00,,---,0.00,VWS V14.01,2013-07-18 19:22:00,
2013-07-18 13:27:00,75.8,50.5,30.43,NNW,329,2.0,4.0,41,0.00,,---,0.00,VWS V14.01,2013-07-18 19:27:00,
2013-07-18 13:32:00,74.9,52.8,30.43,SW,224,1.0,4.0,46,0.00,,---,0.00,VWS V14.01,2013-07-18 19:32:00,
2013-07-18 13:37:00,73.5,51.5,30.43,SE,124,1.0,5.0,46,0.00,,---,0.00,VWS V14.01,2013-07-18 19:37:00,
2013-07-18 13:42:00,71.7,49.2,30.44,ENE,70,1.0,7.0,45,0.00,,---,0.00,VWS V14.01,2013-07-18 19:42:00,
2013-07-18 13:47:00,71.0,50.9,30.44,ESE,107,4.0,7.0,49,0.00,,---,0.00,VWS V14.01,2013-07-18 19:47:00,
2013-07-18 13:52:00,69.6,47.3,30.44,NW,326,2.0,10.0,45,0.00,,---,0.00,VWS V14.01,2013-07-18 19:52:00,
2013-07-18 13:57:00,68.3,45.6,30.43,SE,135,1.0,10.0,44,0.00,,---,0.00,VWS V14.01,2013-07-18 19:57:00,
2013-07-18 14:02:00,67.5,47.7,30.43,ESE,121,1.0,10.0,49,0.00,,---,0.00,VWS V14.01,2013-07-18 20:02:00,
2013-07-18 14:07:00,66.7,46.4,30.43,SE,128,1.0,4.0,48,0.00,,---,0.00,VWS V14.01,2013-07-18 20:07:00,
2013-07-18 14:12:00,66.1,47.5,30.44,SW,231,1.0,5.0,51,0.00,,---,0.00,VWS V14.01,2013-07-18 20:12:00,
2013-07-18 14:17:00,65.5,47.9,30.44,SE,127,1.0,5.0,53,0.00,,---,0.00,VWS V14.01,2013-07-18 20:17:00,
2013-07-18 14:22:00,64.9,47.4,30.44,SE,134,1.0,5.0,53,0.00,,---,0.00,VWS V14.01,2013-07-18 20:22:00,
2013-07-18 14:28:00,64.7,47.7,30.44,SE,132,0.0,5.0,54,0.00,,---,0.00,VWS V14.01,2013-07-18 20:28:00,
2013-07-18 14:33:00,64.7,47.7,30.44,NW,308,0.0,5.0,54,0.00,,---,0.00,VWS V14.01,2013-07-18 20:33:00,
2013-07-18 14:38:00,64.8,48.3,30.44,SE,139,1.0,2.0,55,0.00,,---,0.00,VWS V14.01,2013-07-18 20:38:00,
2013-07-18 14:43:00,64.9,48.4,30.44,ESE,114,1.0,2.0,55,0.00,,---,0.00,VWS V14.01,2013-07-18 20:43:00,
2013-07-18 14:49:00,64.7,47.7,30.45,ESE,108,1.0,4.0,54,0.00,,---,0.00,VWS V14.01,2013-07-18 20:49:00,
2013-07-18 14:56:00,64.5,48.0,30.45,SW,217,0.0,4.0,55,0.00,,---,0.00,VWS V14.01,2013-07-18 20:56:00,
2013-07-18 15:01:00,64.3,48.8,30.45,SW,217,0.0,4.0,57,0.00,,---,0.00,VWS V14.01,2013-07-18 21:01:00,
2013-07-18 15:06:00,64.1,48.6,30.45,NW,309,0.0,0.0,57,0.00,,---,0.00,VWS V14.01,2013-07-18 21:06:00,
2013-07-18 15:11:00,63.9,47.9,30.44,NW,309,0.0,0.0,56,0.00,,---,0.00,VWS V14.01,2013-07-18 21:11:00,
2013-07-18 15:16:00,63.8,47.3,30.44,ESE,112,1.0,3.0,55,0.00,,---,0.00,VWS V14.01,2013-07-18 21:16:00,
2013-07-18 15:21:00,63.8,47.3,30.44,ESE,122,0.0,3.0,55,0.00,,---,0.00,VWS V14.01,2013-07-18 21:21:00,
2013-07-18 15:26:00,63.8,46.8,30.44,ESE,122,0.0,3.0,54,0.00,,---,0.00,VWS V14.01,2013-07-18 21:26:00,
2013-07-18 15:31:00,63.9,48.4,30.44,WSW,241,1.0,3.0,57,0.00,,---,0.00,VWS V14.01,2013-07-18 21:31:00,
2013-07-18 15:36:00,63.4,48.8,30.44,WSW,256,0.0,1.0,59,0.00,,---,0.00,VWS V14.01,2013-07-18 21:36:00,
2013-07-18 15:41:00,63.3,48.7,30.44,West,277,1.0,2.0,59,0.00,,---,0.00,VWS V14.01,2013-07-18 21:41:00,
2013-07-18 15:46:00,63.3,47.8,30.44,NW,316,0.0,2.0,57,0.00,,---,0.00,VWS V14.01,2013-07-18 21:46:00,
2013-07-18 15:51:00,63.4,48.4,30.45,NW,316,0.0,2.0,58,0.00,,---,0.00,VWS V14.01,2013-07-18 21:51:00,
2013-07-18 15:56:00,63.2,48.7,30.45,WSW,250,1.0,2.0,59,0.00,,---,0.00,VWS V14.01,2013-07-18 21:56:00,
2013-07-18 16:01:00,63.1,48.6,30.45,West,262,0.0,2.0,59,0.00,,---,0.00,VWS V14.01,2013-07-18 22:01:00,
2013-07-18 16:06:00,63.0,48.0,30.46,West,274,0.0,1.0,58,0.00,,---,0.00,VWS V14.01,2013-07-18 22:06:00,
2013-07-18 16:11:00,62.9,47.9,30.46,WSW,240,0.0,2.0,58,0.00,,---,0.00,VWS V14.01,2013-07-18 22:11:00,
2013-07-18 16:16:00,62.7,48.2,30.46,WNW,295,0.0,2.0,59,0.00,,---,0.00,VWS V14.01,2013-07-18 22:16:00,
2013-07-18 16:21:00,62.4,48.3,30.46,West,267,0.0,2.0,60,0.00,,---,0.00,VWS V14.01,2013-07-18 22:21:00,
2013-07-18 16:26:00,62.3,47.8,30.46,WSW,245,1.0,3.0,59,0.00,,---,0.00,VWS V14.01,2013-07-18 22:26:00,
2013-07-18 16:31:00,62.1,48.1,30.47,WNW,288,0.0,3.0,60,0.00,,---,0.00,VWS V14.01,2013-07-18 22:31:00,
2013-07-18 16:36:00,61.7,49.8,30.47,WNW,284,0.0,0.0,65,0.00,,---,0.00,VWS V14.01,2013-07-18 22:36:00,
2013-07-18 16:41:00,60.7,50.5,30.46,NNW,347,0.0,0.0,69,0.01,,---,0.01,VWS V14.01,2013-07-18 22:41:00,
2013-07-18 16:46:00,59.5,51.2,30.47,WSW,257,1.0,1.0,74,0.01,,---,0.01,VWS V14.01,2013-07-18 22:46:00,
2013-07-18 16:51:00,58.4,51.6,30.47,NNW,339,1.0,2.0,78,0.02,,---,0.02,VWS V14.01,2013-07-18 22:51:00,
2013-07-18 16:56:00,57.2,51.4,30.47,West,266,1.0,3.0,81,0.05,,---,0.05,VWS V14.01,2013-07-18 22:56:00,
2013-07-18 17:01:00,56.2,51.8,30.47,West,276,1.0,3.0,85,0.07,,---,0.07,VWS V14.01,2013-07-18 23:01:00,
2013-07-18 17:06:00,55.5,52.0,30.47,WNW,298,2.0,2.0,88,0.09,,---,0.09,VWS V14.01,2013-07-18 23:06:00,
2013-07-18 17:11:00,55.1,51.6,30.47,WNW,300,2.0,2.0,88,0.10,,---,0.10,VWS V14.01,2013-07-18 23:11:00,
2013-07-18 17:16:00,54.9,52.0,30.46,West,271,1.0,2.0,90,0.13,,---,0.13,VWS V14.01,2013-07-18 23:16:00,
2013-07-18 17:21:00,54.7,51.8,30.46,NW,305,1.0,3.0,90,0.14,,---,0.14,VWS V14.01,2013-07-18 23:21:00,
2013-07-18 17:26:00,54.6,52.0,30.46,NNW,328,2.0,3.0,91,0.15,,---,0.15,VWS V14.01,2013-07-18 23:26:00,
2013-07-18 17:31:00,54.5,51.9,30.45,WNW,300,2.0,3.0,91,0.15,,---,0.15,VWS V14.01,2013-07-18 23:31:00,
2013-07-18 17:36:00,54.6,52.0,30.45,WNW,298,2.0,3.0,91,0.16,,---,0.16,VWS V14.01,2013-07-18 23:36:00,
2013-07-18 17:41:00,54.7,51.5,30.45,WNW,301,2.0,3.0,89,0.16,,---,0.16,VWS V14.01,2013-07-18 23:41:00,
2013-07-18 17:46:00,54.6,51.4,30.44,WNW,297,2.0,3.0,89,0.16,,---,0.16,VWS V14.01,2013-07-18 23:46:00,
2013-07-18 17:51:00,54.6,51.1,30.44,WNW,295,1.0,3.0,88,0.16,,---,0.16,VWS V14.01,2013-07-18 23:51:00,
2013-07-18 17:56:00,54.7,51.2,30.44,WNW,297,1.0,4.0,88,0.17,,---,0.17,VWS V14.01,2013-07-18 23:56:00,
2013-07-18 18:01:00,54.9,51.4,30.44,NW,309,1.0,4.0,88,0.17,,---,0.17,VWS V14.01,2013-07-19 00:01:00,
2013-07-18 18:06:00,55.0,51.2,30.43,NW,316,1.0,3.0,87,0.08,,---,0.17,VWS V14.01,2013-07-19 00:06:00,
2013-07-18 18:11:00,55.3,51.2,30.43,NNW,347,2.0,3.0,86,0.08,,---,0.17,VWS V14.01,2013-07-19 00:11:00,
2013-07-18 18:16:00,55.3,51.8,30.43,NW,322,3.0,3.0,88,0.08,,---,0.17,VWS V14.01,2013-07-19 00:16:00,
2013-07-18 18:21:00,55.3,52.4,30.43,NNW,338,3.0,5.0,90,0.08,,---,0.17,VWS V14.01,2013-07-19 00:21:00,
2013-07-18 18:26:00,55.4,52.2,30.43,NNW,336,7.0,7.0,89,0.08,,---,0.17,VWS V14.01,2013-07-19 00:26:00,
2013-07-18 18:31:00,55.6,52.1,30.43,NW,311,3.0,7.0,88,0.08,,---,0.17,VWS V14.01,2013-07-19 00:31:00,
2013-07-18 18:36:00,55.9,52.1,30.43,WNW,298,1.0,3.0,87,0.01,,---,0.17,VWS V14.01,2013-07-19 00:36:00,
2013-07-18 18:41:00,56.1,52.0,30.43,West,269,1.0,4.0,86,0.01,,---,0.17,VWS V14.01,2013-07-19 00:41:00,
2013-07-18 18:46:00,55.9,52.4,30.43,West,269,0.0,4.0,88,0.01,,---,0.17,VWS V14.01,2013-07-19 00:46:00,
2013-07-18 18:51:00,55.8,52.3,30.43,WNW,290,0.0,4.0,88,0.01,,---,0.17,VWS V14.01,2013-07-19 00:51:00,
2013-07-18 18:56:00,55.7,52.2,30.43,West,281,0.0,4.0,88,0.01,,---,0.17,VWS V14.01,2013-07-19 00:56:00,
2013-07-18 19:01:00,55.7,52.2,30.43,West,281,0.0,4.0,88,0.01,,---,0.17,VWS V14.01,2013-07-19 01:01:00,
2013-07-18 19:06:00,55.7,52.2,30.43,West,280,0.0,0.0,88,0.00,,---,0.17,VWS V14.01,2013-07-19 01:06:00,
2013-07-18 19:11:00,55.7,52.2,30.43,WSW,239,0.0,0.0,88,0.00,,---,0.17,VWS V14.01,2013-07-19 01:11:00,
2013-07-18 19:16:00,55.9,52.4,30.43,WNW,283,0.0,0.0,88,0.00,,---,0.17,VWS V14.01,2013-07-19 01:16:00,
2013-07-18 19:21:00,55.9,52.4,30.43,NNW,330,2.0,2.0,88,0.00,,---,0.17,VWS V14.01,2013-07-19 01:21:00,
2013-07-18 19:26:00,56.1,52.3,30.43,NW,323,2.0,4.0,87,0.00,,---,0.17,VWS V14.01,2013-07-19 01:26:00,
2013-07-18 19:31:00,56.3,52.5,30.43,NNW,341,2.0,4.0,87,0.00,,---,0.17,VWS V14.01,2013-07-19 01:31:00,
2013-07-18 19:36:00,56.3,52.5,30.43,NW,326,1.0,2.0,87,0.00,,---,0.17,VWS V14.01,2013-07-19 01:36:00,
2013-07-18 19:41:00,56.3,52.2,30.43,NNW,340,2.0,4.0,86,0.00,,---,0.17,VWS V14.01,2013-07-19 01:41:00,
2013-07-18 19:46:00,56.6,52.2,30.43,NNW,343,3.0,4.0,85,0.00,,---,0.17,VWS V14.01,2013-07-19 01:46:00,
2013-07-18 19:51:00,56.9,51.8,30.43,NW,325,2.0,5.0,83,0.00,,---,0.17,VWS V14.01,2013-07-19 01:51:00,
2013-07-18 19:56:00,57.1,52.0,30.43,WNW,288,1.0,5.0,83,0.00,,---,0.17,VWS V14.01,2013-07-19 01:56:00,
2013-07-18 20:01:00,57.3,51.9,30.43,NNW,330,2.0,5.0,82,0.00,,---,0.17,VWS V14.01,2013-07-19 02:01:00,
2013-07-18 20:06:00,57.8,52.0,30.43,WNW,295,1.0,2.0,81,0.00,,---,0.17,VWS V14.01,2013-07-19 02:06:00,
2013-07-18 20:11:00,57.8,52.0,30.43,NW,319,2.0,2.0,81,0.00,,---,0.17,VWS V14.01,2013-07-19 02:11:00,
2013-07-18 20:16:00,57.7,51.6,30.43,NNW,328,2.0,3.0,80,0.00,,---,0.17,VWS V14.01,2013-07-19 02:16:00,
2013-07-18 20:21:00,57.8,52.0,30.43,NW,326,2.0,3.0,81,0.00,,---,0.17,VWS V14.01,2013-07-19 02:21:00,
2013-07-18 20:26:00,57.5,52.1,30.43,NNW,330,2.0,3.0,82,0.00,,---,0.17,VWS V14.01,2013-07-19 02:26:00,
2013-07-18 20:31:00,57.4,52.3,30.43,NNW,338,4.0,4.0,83,0.00,,---,0.17,VWS V14.01,2013-07-19 02:31:00,
2013-07-18 20:36:00,57.1,52.0,30.43,NNW,330,2.0,3.0,83,0.00,,---,0.17,VWS V14.01,2013-07-19 02:36:00,
2013-07-18 20:41:00,57.2,52.1,30.44,NNW,340,2.0,3.0,83,0.00,,---,0.17,VWS V14.01,2013-07-19 02:41:00,
2013-07-18 20:46:00,57.1,52.0,30.44,NNW,346,1.0,3.0,83,0.00,,---,0.17,VWS V14.01,2013-07-19 02:46:00,
2013-07-18 20:51:00,57.0,52.2,30.44,NNW,346,1.0,3.0,84,0.00,,---,0.17,VWS V14.01,2013-07-19 02:51:00,
2013-07-18 20:56:00,56.9,52.1,30.45,NNW,345,0.0,3.0,84,0.00,,---,0.17,VWS V14.01,2013-07-19 02:56:00,
2013-07-18 21:01:00,56.9,52.4,30.45,NNW,345,0.0,3.0,85,0.00,,---,0.17,VWS V14.01,2013-07-19 03:01:00,
2013-07-18 21:06:00,56.7,52.2,30.45,NNW,346,0.0,0.0,85,0.00,,---,0.17,VWS V14.01,2013-07-19 03:06:00,
2013-07-18 21:11:00,56.4,52.0,30.46,North,349,3.0,4.0,85,0.00,,---,0.17,VWS V14.01,2013-07-19 03:11:00,
2013-07-18 21:16:00,56.7,51.6,30.46,NW,326,3.0,4.0,83,0.00,,---,0.17,VWS V14.01,2013-07-19 03:16:00,
2013-07-18 21:21:00,57.0,51.6,30.46,NW,320,2.0,4.0,82,0.00,,---,0.17,VWS V14.01,2013-07-19 03:21:00,
2013-07-18 21:26:00,57.3,51.2,30.47,WNW,293,1.0,4.0,80,0.00,,---,0.17,VWS V14.01,2013-07-19 03:26:00,
2013-07-18 21:31:00,57.6,51.5,30.47,NW,323,2.0,4.0,80,0.00,,---,0.17,VWS V14.01,2013-07-19 03:31:00,
2013-07-18 21:36:00,57.1,52.0,30.47,West,277,1.0,2.0,83,0.00,,---,0.17,VWS V14.01,2013-07-19 03:36:00,
2013-07-18 21:41:00,56.6,51.8,30.47,West,259,1.0,2.0,84,0.00,,---,0.17,VWS V14.01,2013-07-19 03:41:00,
2013-07-18 21:46:00,56.2,52.1,30.48,SW,229,0.0,2.0,86,0.00,,---,0.17,VWS V14.01,2013-07-19 03:46:00,
2013-07-18 21:51:00,56.0,51.6,30.48,North,350,0.0,2.0,85,0.00,,---,0.17,VWS V14.01,2013-07-19 03:51:00,
2013-07-18 21:56:00,56.0,51.6,30.48,ESE,113,0.0,2.0,85,0.00,,---,0.17,VWS V14.01,2013-07-19 03:56:00,
2013-07-18 22:01:00,55.9,51.5,30.48,SE,127,0.0,2.0,85,0.00,,---,0.17,VWS V14.01,2013-07-19 04:01:00,
2013-07-18 22:06:00,56.1,51.3,30.48,NW,322,0.0,1.0,84,0.00,,---,0.17,VWS V14.01,2013-07-19 04:06:00,
2013-07-18 22:11:00,56.1,51.3,30.48,SSE,152,0.0,1.0,84,0.00,,---,0.17,VWS V14.01,2013-07-19 04:11:00,
2013-07-18 22:16:00,56.0,51.2,30.48,North,357,0.0,1.0,84,0.00,,---,0.17,VWS V14.01,2013-07-19 04:16:00,
2013-07-18 22:21:00,56.0,51.2,30.48,ENE,78,0.0,1.0,84,0.00,,---,0.17,VWS V14.01,2013-07-19 04:21:00,
2013-07-18 22:26:00,55.9,51.1,30.47,SE,127,0.0,1.0,84,0.00,,---,0.17,VWS V14.01,2013-07-19 04:26:00,
2013-07-18 22:31:00,55.8,50.7,30.47,WSW,256,0.0,1.0,83,0.00,,---,0.17,VWS V14.01,2013-07-19 04:31:00,
2013-07-18 22:36:00,55.9,50.5,30.47,WSW,243,0.0,3.0,82,0.00,,---,0.17,VWS V14.01,2013-07-19 04:36:00,
2013-07-18 22:41:00,56.0,50.3,30.47,WSW,250,0.0,3.0,81,0.00,,---,0.17,VWS V14.01,2013-07-19 04:41:00,
2013-07-18 22:46:00,56.1,50.4,30.46,NW,318,0.0,3.0,81,0.00,,---,0.17,VWS V14.01,2013-07-19 04:46:00,
2013-07-18 22:51:00,56.2,50.8,30.46,WNW,299,2.0,3.0,82,0.00,,---,0.17,VWS V14.01,2013-07-19 04:51:00,
2013-07-18 22:56:00,56.2,50.8,30.45,NNW,340,1.0,3.0,82,0.00,,---,0.17,VWS V14.01,2013-07-19 04:56:00,
2013-07-18 23:01:00,56.4,50.3,30.45,NNW,333,2.0,4.0,80,0.00,,---,0.17,VWS V14.01,2013-07-19 05:01:00,
2013-07-18 23:06:00,56.7,50.6,30.45,NNW,336,4.0,4.0,80,0.00,,---,0.17,VWS V14.01,2013-07-19 05:06:00,
2013-07-18 23:11:00,56.8,50.4,30.45,NW,326,1.0,4.0,79,0.00,,---,0.17,VWS V14.01,2013-07-19 05:11:00,
2013-07-18 23:16:00,57.0,50.6,30.45,NNW,327,1.0,4.0,79,0.00,,---,0.17,VWS V14.01,2013-07-19 05:16:00,
2013-07-18 23:21:00,57.2,50.1,30.45,NNW,334,0.0,4.0,77,0.00,,---,0.17,VWS V14.01,2013-07-19 05:21:00,
2013-07-18 23:26:00,57.3,50.2,30.46,NNW,327,1.0,4.0,77,0.00,,---,0.17,VWS V14.01,2013-07-19 05:26:00,
2013-07-18 23:31:00,57.2,50.8,30.45,NNW,327,1.0,4.0,79,0.00,,---,0.17,VWS V14.01,2013-07-19 05:31:00,
2013-07-18 23:36:00,56.8,51.0,30.46,NNW,348,0.0,0.0,81,0.00,,---,0.17,VWS V14.01,2013-07-19 05:36:00,
2013-07-18 23:41:00,56.4,51.0,30.46,ENE,57,0.0,0.0,82,0.00,,---,0.17,VWS V14.01,2013-07-19 05:41:00,
2013-07-18 23:46:00,56.0,51.2,30.46,NE,56,0.0,0.0,84,0.00,,---,0.17,VWS V14.01,2013-07-19 05:46:00,
2013-07-18 23:51:00,55.6,51.5,30.46,NNW,341,0.0,0.0,86,0.00,,---,0.17,VWS V14.01,2013-07-19 05:51:00,
2013-07-18 23:56:00,55.2,51.1,30.46,WNW,300,2.0,3.0,86,0.01,,---,0.18,VWS V14.01,2013-07-19 05:56:00,